Torna al catalogo

COSMOS 1375 DEB

AttivoLEO
NORAD 17797·DEBRIS·🇷🇺 Russia

Lanciato Jun 6, 1982 da Plesetsk Cosmodrome

Loading…

Prossimi Passaggi (prossime 24 ore)

TLE

AggiornatoSource: Space-Track

Epoca: Sep 14, 2026, 10:50 UTC

1 17797U 82055AP  26257.45143307  .00000453  00000-0  42494-3 0  9998
2 17797  65.8250  67.7467 0014786 213.1325 173.2600 13.91270538 64197

Traccia COSMOS 1375 DEB in tempo reale con AllMySat

Download on the App Store